TimeCST,TemperatureF,Dew PointF,Humidity,Sea Level PressureIn,VisibilityMPH,Wind Direction,Wind SpeedMPH,Gust SpeedMPH,PrecipitationIn,Events,Conditions,WindDirDegrees,DateUTC
12:15 AM,76.6,71.6,84,29.70,10.0,South,11.5,19.6,N/A,,Overcast,190,2013-11-17 06:15:00
12:35 AM,77.0,71.6,83,29.70,10.0,SSW,13.8,20.7,N/A,,Overcast,200,2013-11-17 06:35:00
12:55 AM,77.0,71.2,82,29.70,10.0,SSW,11.5,20.7,N/A,,Overcast,200,2013-11-17 06:55:00
1:15 AM,77.4,71.1,81,29.70,10.0,SSW,15.0,26.5,N/A,,Overcast,200,2013-11-17 07:15:00
1:35 AM,77.4,70.9,80,29.70,10.0,SSW,12.7,23.0,N/A,,Overcast,200,2013-11-17 07:35:00
1:55 AM,77.4,70.9,80,29.69,10.0,SSW,16.1,25.3,N/A,,Overcast,200,2013-11-17 07:55:00
2:15 AM,77.4,70.9,80,29.69,10.0,SSW,16.1,20.7,N/A,,Overcast,200,2013-11-17 08:15:00
2:35 AM,77.4,71.1,81,29.68,10.0,SSW,11.5,21.9,N/A,,Overcast,200,2013-11-17 08:35:00
2:55 AM,77.4,71.2,81,29.69,10.0,SSW,15.0,23.0,N/A,,Overcast,210,2013-11-17 08:55:00
3:15 AM,77.2,71.2,82,29.69,10.0,SSW,13.8,23.0,N/A,,Overcast,210,2013-11-17 09:15:00
3:35 AM,76.8,71.2,83,29.68,10.0,SSW,12.7,20.7,N/A,,Overcast,210,2013-11-17 09:35:00
3:55 AM,77.0,71.2,82,29.68,10.0,SSW,16.1,24.2,N/A,,Overcast,200,2013-11-17 09:55:00
4:15 AM,76.6,71.2,83,29.68,10.0,SSW,15.0,20.7,N/A,,Overcast,210,2013-11-17 10:15:00
4:35 AM,77.0,71.6,83,29.69,10.0,SW,12.7,24.2,N/A,,Overcast,220,2013-11-17 10:35:00
4:55 AM,76.6,71.6,84,29.68,10.0,SSW,12.7,20.7,N/A,,Overcast,210,2013-11-17 10:55:00
5:15 AM,76.3,71.4,85,29.67,10.0,SSW,13.8,20.7,N/A,,Overcast,200,2013-11-17 11:15:00
5:35 AM,76.1,71.6,86,29.68,10.0,SSW,12.7,20.7,N/A,,Overcast,200,2013-11-17 11:35:00
5:55 AM,76.3,71.6,85,29.68,10.0,SSW,12.7,18.4,N/A,,Overcast,210,2013-11-17 11:55:00
6:15 AM,76.1,71.6,86,29.69,10.0,SW,12.7,18.4,N/A,,Overcast,220,2013-11-17 12:15:00
6:35 AM,76.1,71.4,85,29.68,10.0,SSW,13.8,17.3,N/A,,Mostly Cloudy,210,2013-11-17 12:35:00
6:55 AM,75.9,71.1,85,29.69,10.0,SSW,12.7,21.9,N/A,,Scattered Clouds,210,2013-11-17 12:55:00
7:15 AM,76.3,70.9,83,29.70,10.0,SSW,12.7,21.9,N/A,,Scattered Clouds,210,2013-11-17 13:15:00
7:35 AM,76.6,71.1,83,29.72,10.0,SW,12.7,19.6,N/A,,Scattered Clouds,220,2013-11-17 13:35:00
7:55 AM,77.4,71.6,82,29.73,10.0,SW,11.5,21.9,N/A,,Overcast,230,2013-11-17 13:55:00
8:15 AM,77.7,71.6,81,29.74,10.0,SW,12.7,20.7,N/A,,Overcast,230,2013-11-17 14:15:00
8:35 AM,78.3,71.6,80,29.75,10.0,SW,13.8,17.3,N/A,,Overcast,220,2013-11-17 14:35:00
8:55 AM,79.0,71.2,77,29.75,10.0,SW,12.7,20.7,N/A,,Overcast,230,2013-11-17 14:55:00
9:15 AM,79.9,70.9,74,29.76,10.0,WSW,13.8,26.5,N/A,,Mostly Cloudy,240,2013-11-17 15:15:00
9:35 AM,81.3,70.0,68,29.77,10.0,West,11.5,24.2,N/A,,Scattered Clouds,260,2013-11-17 15:35:00
9:55 AM,82.4,68.2,62,29.78,10.0,WSW,16.1,25.3,N/A,,Scattered Clouds,250,2013-11-17 15:55:00
10:15 AM,83.3,66.2,56,29.78,10.0,WSW,15.0,24.2,N/A,,Scattered Clouds,250,2013-11-17 16:15:00
10:35 AM,84.2,63.7,50,29.78,10.0,West,11.5,19.6,N/A,,Clear,270,2013-11-17 16:35:00
10:55 AM,85.1,63.0,47,29.78,10.0,West,15.0,18.4,N/A,,Clear,260,2013-11-17 16:55:00
11:15 AM,85.1,56.5,38,29.78,10.0,WNW,17.3,25.3,N/A,,Clear,290,2013-11-17 17:15:00
11:35 AM,85.5,57.7,39,29.78,10.0,West,11.5,-,N/A,,Clear,280,2013-11-17 17:35:00
11:55 AM,86.0,56.1,36,29.78,10.0,WNW,12.7,17.3,N/A,,Clear,290,2013-11-17 17:55:00
12:15 PM,86.0,56.1,36,29.77,10.0,West,12.7,21.9,N/A,,Clear,280,2013-11-17 18:15:00
12:35 PM,86.0,55.2,35,29.77,10.0,NW,10.4,-,N/A,,Clear,310,2013-11-17 18:35:00
12:55 PM,86.7,54.7,33,29.77,10.0,West,10.4,16.1,N/A,,Clear,260,2013-11-17 18:55:00
1:15 PM,86.7,54.5,33,29.77,10.0,West,8.1,-,N/A,,Clear,260,2013-11-17 19:15:00
1:35 PM,86.9,52.9,31,29.77,10.0,West,8.1,-,N/A,,Clear,270,2013-11-17 19:35:00
1:55 PM,87.4,51.6,29,29.76,10.0,WNW,5.8,-,N/A,,Clear,290,2013-11-17 19:55:00
2:15 PM,87.8,48.9,26,29.76,10.0,WNW,8.1,-,N/A,,Clear,300,2013-11-17 20:15:00
2:35 PM,87.8,48.0,25,29.77,10.0,West,8.1,-,N/A,,Clear,280,2013-11-17 20:35:00
2:55 PM,87.6,46.8,24,29.77,10.0,WNW,9.2,-,N/A,,Clear,300,2013-11-17 20:55:00
3:15 PM,86.9,48.0,26,29.78,10.0,West,5.8,-,N/A,,Clear,280,2013-11-17 21:15:00
3:35 PM,86.4,46.0,25,29.79,10.0,WNW,6.9,-,N/A,,Clear,300,2013-11-17 21:35:00
3:55 PM,85.8,45.7,25,29.80,10.0,NW,8.1,-,N/A,,Clear,320,2013-11-17 21:55:00
4:15 PM,84.4,47.8,28,29.81,10.0,NW,4.6,-,N/A,,Clear,320,2013-11-17 22:15:00
4:35 PM,83.3,47.7,29,29.82,10.0,NNW,5.8,-,N/A,,Clear,330,2013-11-17 22:35:00
4:55 PM,81.5,47.5,30,29.83,10.0,NNW,8.1,-,N/A,,Clear,330,2013-11-17 22:55:00
5:15 PM,78.6,47.5,33,29.84,10.0,NNW,4.6,-,N/A,,Clear,330,2013-11-17 23:15:00
5:35 PM,76.6,47.5,36,29.85,10.0,NNW,4.6,-,N/A,,Clear,340,2013-11-17 23:35:00
5:55 PM,75.2,47.8,38,29.87,10.0,North,5.8,-,N/A,,Clear,350,2013-11-17 23:55:00
6:15 PM,74.1,47.7,39,29.88,10.0,North,5.8,-,N/A,,Clear,350,2013-11-18 00:15:00
6:35 PM,72.7,46.6,39,29.89,10.0,North,10.4,-,N/A,,Clear,360,2013-11-18 00:35:00
6:55 PM,73.2,45.0,36,29.91,10.0,North,6.9,-,N/A,,Clear,10,2013-11-18 00:55:00
7:15 PM,71.8,43.3,36,29.92,10.0,North,8.1,-,N/A,,Clear,10,2013-11-18 01:15:00
7:35 PM,70.5,42.4,36,29.93,10.0,North,5.8,-,N/A,,Clear,10,2013-11-18 01:35:00
7:55 PM,68.9,41.4,37,29.94,10.0,NNE,3.5,-,N/A,,Clear,30,2013-11-18 01:55:00
8:15 PM,68.2,41.0,37,29.95,10.0,North,3.5,-,N/A,,Clear,10,2013-11-18 02:15:00
8:35 PM,67.5,40.5,37,29.97,10.0,North,5.8,-,N/A,,Clear,360,2013-11-18 02:35:00
8:55 PM,65.8,41.0,40,29.98,10.0,North,5.8,-,N/A,,Clear,360,2013-11-18 02:55:00
9:15 PM,65.7,39.9,39,29.98,10.0,NNE,4.6,-,N/A,,Clear,20,2013-11-18 03:15:00
9:35 PM,65.5,39.0,38,29.99,10.0,NNE,4.6,-,N/A,,Clear,20,2013-11-18 03:35:00
9:55 PM,64.9,38.3,37,30.01,10.0,North,5.8,-,N/A,,Clear,10,2013-11-18 03:55:00
10:15 PM,65.3,37.0,35,30.01,10.0,North,8.1,-,N/A,,Clear,10,2013-11-18 04:15:00
10:35 PM,65.8,35.2,32,30.02,10.0,North,9.2,-,N/A,,Clear,10,2013-11-18 04:35:00
10:55 PM,66.2,34.3,31,30.03,10.0,NNE,8.1,-,N/A,,Clear,20,2013-11-18 04:55:00
11:15 PM,66.0,32.2,28,30.03,10.0,NNE,6.9,-,N/A,,Clear,30,2013-11-18 05:15:00
11:35 PM,65.7,30.6,27,30.04,10.0,NNE,9.2,-,N/A,,Clear,20,2013-11-18 05:35:00
11:55 PM,65.8,29.1,25,30.04,10.0,NNE,9.2,-,N/A,,Clear,20,2013-11-18 05:55:00